Flag for U.S.A. Weather past 2 weeks in Downey, California, U.S.A.

Now
71 °F

Clear.


Feels Like: 75 °F
Forecast: 68 / 88 °F
Wind: 6 mph from Northwest

Location: Long Beach Airport

Current Time: Aug 4, 2015 at 1:17:28 AM

Latest Report: Aug 4, 2015 at 12:53 AM


Visibility: 10 mi

Pressure: 29.88 "Hg

Humidity: 66%

Dew point: 59 °F

Location of DowneyLocation

Historic Weather in Downey — Graph

°F

Downey temperature yesterday

Maximum temperature yesterday: 85 °F (at 3:53 PM)
Minimum temperature yesterday: 70 °F (at 12:53 AM)
Average temperature yesterday: 75 °F

Past Weeks' High & Low Weather Summary

 TemperatureHumidityPressure
High88 °F (Jul 25, 3:53 PM)91% (Jul 20, 9:53 PM)30.08 "Hg (Jul 20, 9:53 PM)
Low67 °F (Jul 26, 5:53 AM)38% (Jul 25, 4:53 PM)29.81 "Hg (Aug 2, 6:53 PM)
Average75 °F71%29.93 "Hg
* Reported Jul 19 11:53 PM — Aug 3 11:53 PM, Downey, Weather by CustomWeather, © 2015

Note: Actual official high and low records may vary slightly from our data, if they occured in-between our weather recording intervals... More about our weather records

Advertising

Downey weather history for previous 24 hours

 ConditionsComfort  
Time TempWeatherWind HumidityBarometerVisibility
11:53 PM
Mon, Aug 3
72 °FClear.6 mph64%29.88 "Hg10 mi
10:53 PM72 °FClear.6 mph68%29.88 "Hg10 mi
9:53 PM73 °FClear.5 mph64%29.88 "Hg10 mi
8:53 PM75 °FClear.3 mph60%29.86 "Hg10 mi
7:53 PM75 °FSunny.9 mph60%29.85 "Hg10 mi
6:53 PM78 °FSunny.15 mph60%29.84 "Hg10 mi
5:53 PM82 °FSunny.12 mph53%29.85 "Hg10 mi
4:53 PM83 °FSunny.12 mph55%29.85 "Hg10 mi
3:53 PM85 °FSunny.6 mph51%29.85 "Hg10 mi
2:53 PM82 °FSunny.7 mph56%29.87 "Hg10 mi
1:53 PM78 °FSunny.7 mph62%29.89 "Hg10 mi
12:53 PM78 °FSunny.10 mph62%29.90 "Hg10 mi
11:53 AM78 °FScattered clouds.6 mph62%29.90 "Hg10 mi
10:53 AM77 °FScattered clouds.5 mph64%29.90 "Hg9 mi
9:53 AM75 °FScattered clouds.No wind69%29.91 "Hg9 mi
8:53 AM72 °FPartly sunny.No wind76%29.90 "Hg8 mi
7:53 AM71 °FOvercast.5 mph78%29.89 "Hg9 mi
6:53 AM71 °FOvercast.No wind76%29.89 "Hg10 mi
5:53 AM70 °FOvercast.No wind79%29.88 "Hg10 mi
4:53 AM70 °FOvercast.No wind81%29.87 "Hg10 mi
3:53 AM70 °FClear.3 mph81%29.86 "Hg10 mi
2:53 AM70 °FClear.3 mph81%29.86 "Hg9 mi
1:53 AM70 °FClear.3 mph84%29.86 "Hg10 mi
Weather by CustomWeather, © 2015

See weather overviewHow to use our weather pages